Regional Weather Roundup
Issued by NWS Sioux Falls, SD

Home | Current Version | Previous Version | Text Only | Print | Product List | Glossary On
Versions: 1 2 3 4 5 6 7 8 9 10 11 12 13 14 15 16 17 18 19 20 21 22 23 24 25 26 27 28 29 30 31 32 33 34 35 36 37 38 39 40 41 42 43 44 45 46 47 48 49 50
000
ASUS43 KFSD 252302
RWRFSD

WEATHER ROUNDUP FOR SE SOUTH DAKOTA/SW MINNESOTA/NW IOWA
NATIONAL WEATHER SERVICE SIOUX FALLS SD
600 PM CDT SAT APR 25 2015

NOTE: "FAIR" INDICATES FEW OR NO CLOUDS BELOW 12,000 FEET WITH NO
SIGNIFICANT WEATHER AND OR OBSTRUCTIONS TO VISIBILITY.


SDZ038>040-050-052>070-260000-
SOUTHEAST SOUTH DAKOTA

CITY           SKY/WX    TMP DP  RH WIND       PRES   REMARKS
BROOKINGS      CLOUDY    55  41  58 E13       29.84R
CHAMBERLAIN    NOT AVBL
HURON          CLOUDY    61  44  53 SE9       29.81R
MADISON        CLOUDY    55  43  62 E13       29.83R
MITCHELL       PTSUNNY   61  46  57 E13       29.81R
SIOUX FALLS    PTSUNNY   59  41  51 E16       29.81R
WINNER         CLOUDY    60  45  57 SE14      29.78R
YANKTON        PTSUNNY   61  41  48 E12       29.78R
$$

MNZ071-072-080-081-089-090-097-098-260000-
SOUTHWEST MINNESOTA

CITY           SKY/WX    TMP DP  RH WIND       PRES   REMARKS
FAIRMONT       CLOUDY    54  36  50 E15       29.85R
JACKSON        CLOUDY    54  37  54 E16       29.85R
LUVERNE        MOSUNNY   59  39  47 E12G21    29.82R
MARSHALL       MOSUNNY   57  37  47 E12       29.84R
MONTEVIDEO     PTSUNNY   61  41  48 E13       29.86R
REDWOOD FALLS  MOSUNNY   59  38  45 SE10      29.84R
TRACY          PTSUNNY   56  41  55 E15       29.85R
WORTHINGTON    CLOUDY    54  37  54 E16       29.83R
$$

IAZ001>003-012>014-020>022-031-032-NEZ013-014-SDZ071-260000-
NORTHWEST IOWA

CITY           SKY/WX    TMP DP  RH WIND       PRES   REMARKS
DENISON        CLOUDY    52  46  82 E18G26    29.76R
ESTHERVILLE    CLOUDY    52  41  66 E18       29.83R
SIOUX CITY     PTSUNNY   58  41  53 E15       29.79R
SPENCER        CLOUDY    54  42  64 NE15      29.83R
$$

ABBREVIATIONS USED IN REMARKS
   TC - TEMPERATURE IN CELSIUS
  WCI - WIND CHILL INDEX
   HX - HEAT INDEX
  VSB - VISIBILITY




USA.gov is the U.S. government's official web portal to all federal, state and local government web resources and services.